Location: ????????
(54.8751°N, 38.5756°E)
Time: 21:24:19
(UTC+00:00)

Landsat 2 Rocket - Visible Passes

Search period start: 19 September 2024 00:00
Search period end: 29 September 2024 00:00
Orbit: 698 x 765 km, 98.0° (Epoch: 18 September)

Date Brightness Start Highest point End Pass type
(mag) Time Alt. Az. Time Alt. Az. Time Alt. Az.
19 Sep 6.2 19:42:35 33° NNE 19:42:35 33° NNE 19:45:45 10° N visible
19 Sep 6.9 21:22:05 23° NW 21:22:05 23° NW 21:24:11 10° NNW visible
20 Sep 6.7 18:55:35 20° NE 18:55:35 20° NE 18:58:34 10° N visible
20 Sep 6.4 20:35:04 34° NNW 20:35:04 34° NNW 20:37:45 10° NNW visible
20 Sep 7.5 22:14:34 11° NW 22:14:34 11° NW 22:14:51 10° NW visible
21 Sep 7.2 18:08:34 10° NE 18:09:07 11° NE 18:10:09 10° NNE visible
21 Sep 6.3 19:48:04 32° NNE 19:48:04 32° NNE 19:50:58 10° N visible
21 Sep 7.0 21:27:34 20° NW 21:27:34 20° NW 21:29:17 10° NNW visible
22 Sep 6.7 19:01:03 21° NE 19:01:03 21° NE 19:03:49 10° N visible
22 Sep 6.6 20:40:33 29° NNW 20:40:33 29° NNW 20:42:55 10° NNW visible
23 Sep 7.2 18:14:02 11° NE 18:14:12 11° NE 18:15:44 10° NNE visible
23 Sep 6.5 19:53:32 30° N 19:53:32 30° N 19:56:10 10° N visible
23 Sep 7.2 21:33:02 17° NW 21:33:02 17° NW 21:34:23 10° NNW visible
24 Sep 6.7 19:06:31 21° NE 19:06:31 21° NE 19:09:04 10° N visible
24 Sep 6.8 20:46:01 26° NNW 20:46:01 26° NNW 20:48:04 10° NNW visible
25 Sep 7.1 18:19:30 12° NE 18:19:30 12° NE 18:21:11 10° NNE visible
25 Sep 6.6 19:59:00 28° N 19:59:00 28° N 20:01:21 10° N visible
25 Sep 7.4 21:38:29 15° NW 21:38:29 15° NW 21:39:28 10° NNW visible
26 Sep 6.8 19:11:58 21° NNE 19:11:58 21° NNE 19:14:17 10° N visible
26 Sep 7.0 20:51:28 22° NNW 20:51:28 22° NNW 20:53:13 10° NNW visible
27 Sep 7.1 18:24:56 13° NE 18:24:56 13° NE 18:26:35 10° NNE visible
27 Sep 6.8 20:04:26 26° N 20:04:26 26° N 20:06:32 10° N visible
27 Sep 7.5 21:43:56 13° NW 21:43:56 13° NW 21:44:31 10° NW visible
28 Sep 6.9 19:17:25 21° NNE 19:17:25 21° NNE 19:19:30 10° N visible
28 Sep 7.2 20:56:54 19° NNW 20:56:54 19° NNW 20:58:20 10° NNW visible
